SL-16 DEB, 29098

Orbit data source: Space-Track

SL-16 DEB, 29098 is space debris in LEO originally from a launch on Fri, 26 Mar 1993 UTC launched from the Tyuratam Missile And Space Complex (TTMTR). Debris objects in space refer to the collection of defunct objects orbiting the Earth. Examples of debris include non-operational satellites, rocket bodies, and fragments generated from explosions, collisions, or faulty payload assembly.

Loading next visibility...
Identifier
29098, 1993-016AM
Orbit
LEO
Country
Flag of CISCIS
Related business
Manufacturer
Unknown
Mission
Spacecraft
Bus & Motor
Unknown
Mass
Unknown
Launch date (UTC)
1993-03-26 (33 years ago)
Launch vehicle
Unknown
Launch site
Tyuratam Missile And Space Complex (TTMTR)
Object type
Payload
Rocket body
Debris
Shape & HBR
Unknown shape, 0.1 m
Radar Cross Section
Small (<0.1 m²)

Expand to show TLE details & history
Last TLE update: 14 hours ago

TLE from 14 hours ago
0 SL-16 DEB
1 29098U 93016AM  26255.00026414  .00000240  00000-0  13656-3 0  9994
2 29098  70.9259 342.2225 0079544  65.7479 109.1879 14.17871167683093
Epoch: 2026-09-12T00:00Z
TLE epoch observation values (Epoch: 2026-09-12T00:00:22.821Z)
Latitude
3.89248°
Longitude
169.77085°
Altitude
853.799 km
Speed
7.416 km/s
True Right ascension
10h 43m 31s
True Declination
3° 52' 10"
Sunlit
Object was in daylight at epoch
Visualization orbit readout
Latitude
Unknown
Longitude
Unknown
Altitude
Unknown
Speed
Unknown
Apparent Right ascension
Unknown
Apparent Declination
Unknown
Sunlit
N/A
Visualization observer readout
Local Sidereal Time
06:35:25
Azimuth
Unknown
Elevation
Unknown
Doppler factor
Unknown
Orbital elements
Apogee altitude
887.831 km
Perigee altitude
773.15 km
Semi-major axis
7,208.628 km
Eccentricity
0.00795
Inclination
70.9259°
RAAN
342.2225°
Arg. of periapsis
65.7479°
True anomaly
110.04593°
Mean anomaly
109.1879°
Eccentric anomaly
109.6172°
Mean motion
3.54621 °/min
Orbital period
101.52 mins
BSTAR
0.00013656
Loading maneuver chart data...
Computing Atmospheric mass density...
Loading historical data...
Loading historical data...
Loading historical data...
Loading historical data...
Loading historical data...
Loading historical data...
Loading historical data...

Documentation

Showing up to 5 results
|